sat.trackr.live / text

‹ back to catalog

STARLINK-31058

NORAD 58677 · 2023-211L

PAYLOAD ACTIVE UNKNOWN

§ Identity

Operator
Country
US
Launch date
2023-12-29
Launch site
AFETR
Launch vehicle
Mass (kg)
RCS (m²)

Purposes: comms

External: N2YO · Heavens-Above · Gunter

§ Orbital elements

Epoch: 2026-09-20T17:09:04.547808Z

Period
94.27 min
Inclination
43.0041°
Eccentricity
0.0001398
Mean motion
15.27576946 rev/d
Perigee alt
482.1 km
Apogee alt
484.0 km
Semi-major
6,861.2 km
B*
1.2861e-5
RAAN
63.6659°
Arg perigee
276.9865°
Mean anomaly
83.0828°
Rev number
15,229

§ Raw data

STARLINK-310581 58677U 23211L   26263.71463597  .00000092  00000+0  12861-4 0  99952 58677  43.0041  63.6659 0001398 276.9865  83.0828 15.27576946152296

JSON: /api/v1/satellites/58677 · /tle

For live sub-satellite position, see the globe view (requires WebGL).

§ Visibility from observer

Set your observer location to see the next 7 days of passes ≥ 10°. The values pass through the URL so the page stays shareable.

No JS? Fill the form by hand. The geolocation button needs JavaScript.